Terminal Aerodrome Forecast
Issued by NWS

Home | Current Version | Previous Version | Graphics & Text | Print | Product List | Glossary On
Versions: 1 2 3 4 5 6 7 8 9 10 11 12 13 14 15 16 17
813
FTUS42 KMHX 222337
TAFPGV
TAF
KPGV 222337Z 2300/2324 20012KT P6SM VCTS SCT030 BKN060CB
     FM230230 05008KT P6SM VCSH OVC012
     FM230400 03009KT P6SM VCSH BKN008
     FM231700 06011KT P6SM VCSH OVC015
      AMD LTD TO CLD VIS AND WIND=

USA.gov is the U.S. government's official web portal to all federal, state and local government web resources and services.